Location: Hendley
(40.1283°N, 99.9698°W)
Time: 01:17:26
(UTC+00:00)

Daily predictions for brighter satellites

Satellite Brightness Start Highest point End
(mag) Time Altitude Azimuth Time Altitude Azimuth Time Altitude Azimuth
Cosmos 405 Rocket 4.0 02:20:25 10° NNW 02:24:19 46° W 02:28:07 10° SSW
MOS 1 4.4 02:20:09 10° SSE 02:25:51 83° ENE 02:31:34 10° NNW
USA 229 DEB 3.6 02:21:45 10° SSW 02:28:04 61° ESE 02:34:43 10° NE
USA 229 3.6 02:21:52 10° SSW 02:28:11 61° ESE 02:34:49 10° NE
STARLINK-1170 4.0 02:24:07 10° WNW 02:28:12 59° SW 02:32:16 10° SE
STARLINK-1201 4.3 02:25:01 10° SSW 02:28:44 33° SE 02:32:28 10° ENE
ATLAS CENTAUR R/B 3.7 02:26:07 10° WSW 02:30:02 30° NW 02:32:13 10° NNE
Cosmos 389 Rocket 3.5 02:27:33 10° SSE 02:30:27 26° E 02:33:24 10° NE
ISS -0.7 02:31:37 10° NNW 02:33:01 12° N 02:34:25 10° NNE
STARLINK-1150 4.2 02:29:08 10° WNW 02:33:10 53° SW 02:37:12 10° SSE
STARLINK-1206 4.2 02:29:53 10° SSW 02:33:41 36° SE 02:37:30 10° ENE
Cosmos 1464 Rocket 4.1 02:28:22 10° N 02:34:43 69° E 02:41:04 10° SSE
NOSS 3-1 (C) 3.2 02:30:49 10° SSW 02:36:06 74° ESE 02:42:11 10° NE
Cosmos 2251 Rocket 3.5 02:32:08 10° NNW 02:37:24 88° ENE 02:42:38 10° SSE
NOSS 3-1 (A) 3.5 02:32:25 10° S 02:37:26 44° ESE 02:43:05 10° NE
DMSP B5D2-2 4.1 02:32:13 10° NNE 02:37:30 65° ESE 02:42:42 10° S
STARLINK-1151 4.3 02:34:09 10° WNW 02:38:09 48° SW 02:42:07 10° SSE
Resurs 1-3 4.0 02:34:05 10° SSE 02:38:18 49° ENE 02:42:33 10° N
STARLINK-1205 4.0 02:34:46 10° SSW 02:38:38 40° SE 02:42:32 10° ENE
Okean 1 4.1 02:36:25 10° SSE 02:40:03 33° E 02:43:43 10° NNE
STARLINK-1171 4.5 02:36:29 10° NW 02:40:26 42° NNE 02:44:23 10° ESE
STARLINK-1133 4.5 02:39:09 10° WNW 02:43:05 43° SW 02:47:01 10° SSE
Ariane Rocket 3.9 02:38:21 10° S 02:43:15 51° W 02:48:13 10° NNW
STARLINK-1218 3.9 02:39:38 10° SSW 02:43:35 44° SE 02:47:32 10° ENE
STARLINK-1155 4.4 02:41:26 10° NW 02:45:26 45° NNE 02:49:22 10° ESE
Cosmos 2242 Rocket 3.6 02:41:59 10° S 02:46:20 63° E 02:50:41 10° NNE
FREGAT/IRIS 4.2 02:44:12 10° SSW 02:46:36 29° W 02:49:00 10° NNW
STARLINK-1254 3.8 02:44:33 10° SSW 02:48:33 49° SE 02:52:33 10° ENE
NOSS 2-3 (C) 4.0 02:44:39 10° S 02:48:34 40° ESE 02:52:55 10° NE
STARLINK-1166 4.2 02:46:23 10° NW 02:50:25 49° NE 02:54:08 12° ESE
CZ-2C R/B 3.7 02:46:24 10° NNE 02:50:53 90° ESE 02:55:23 10° SSW
MetOp-A 4.2 02:46:12 10° SSE 02:51:33 87° ENE 02:56:56 10° NNW
STARLINK-1228 4.5 02:49:42 10° WSW 02:52:53 41° NNW 02:56:04 10° NE
STARLINK-1234 4.3 02:50:27 10° WSW 02:53:25 41° NW 02:56:23 10° NE
STARLINK-1231 3.7 02:49:30 10° SSW 02:53:32 55° SE 02:57:35 10° ENE
STARLINK-1212 3.6 02:51:42 10° WSW 02:54:45 56° NW 02:57:48 10° NE
Cosmos 1666 3.7 02:51:06 10° NNW 02:54:49 47° W 02:58:31 10° SSW
STARLINK-1105 3.6 02:52:10 10° WSW 02:55:13 55° NW 02:58:16 10° NE
STARLINK-1165 4.1 02:51:21 10° NW 02:55:26 53° NE 02:58:55 13° ESE
STARLINK-1247 3.7 02:53:06 10° WSW 02:56:08 54° NW 02:59:12 10° NE
STARLINK-1227 3.7 02:53:33 10° WSW 02:56:36 53° NW 02:59:38 10° NE
Cosmos 1536 3.8 02:52:51 10° NNW 02:56:46 48° W 03:00:41 10° SSW
STARLINK-1226 3.8 02:54:25 10° WSW 02:57:27 52° NW 03:00:30 10° NE
Cosmos 2056 Rocket 3.9 02:52:54 10° S 02:57:36 38° ESE 03:02:19 10° NE
STARLINK-1215 3.8 02:55:21 10° WSW 02:58:23 51° NW 03:01:27 10° NE
STARLINK-1232 3.6 02:54:26 10° SW 02:58:30 61° SE 03:02:35 10° ENE
STARLINK-1217 3.9 02:57:08 10° WSW 03:00:10 49° NW 03:03:12 10° NE
STARLINK-1169 4.0 02:56:19 10° NW 03:00:25 58° NE 03:03:42 15° ESE
ARGOS 4.4 02:55:29 10° SSW 03:00:29 40° W 03:05:33 10° NNW
STARLINK-1229 4.0 02:58:04 10° WSW 03:01:05 48° NW 03:04:07 10° NE
CZ-2C R/B 2.9 02:55:30 10° NNE 03:01:07 84° WNW 03:06:44 10° SSW
STARLINK-1270 4.0 02:58:56 10° WSW 03:01:57 47° NW 03:04:59 10° NE
Cosmos 44 Rocket 3.3 02:58:22 10° NNW 03:03:16 82° ENE 03:07:23 15° SE
STARLINK-1208 3.5 02:59:20 10° SW 03:03:26 67° SE 03:07:33 10° NE
STARLINK-1189 4.1 03:00:47 10° WSW 03:03:47 45° NW 03:06:48 10° NE
STARLINK-1188 4.1 03:01:41 10° WSW 03:04:41 44° NW 03:07:42 10° NE
STARLINK-1178 3.8 03:01:16 10° NW 03:05:24 63° NE 03:08:29 17° ESE
STARLINK-1187 4.5 03:02:53 10° WSW 03:05:48 38° NNW 03:08:43 10° NE
Tsikada Rocket 4.0 03:00:58 10° S 03:07:07 68° E 03:13:15 10° NNE
STARLINK-1191 4.3 03:04:11 10° WSW 03:07:09 42° NW 03:10:08 10° NE
DNEPR-1 R/B 4.5 03:01:26 10° NW 03:07:29 62° WSW 03:11:59 12° SSE
STARLINK-1221 4.3 03:05:05 10° WSW 03:08:01 41° NW 03:10:59 10° NE
STARLINK-1271 3.5 03:04:19 10° SW 03:08:25 74° SE 03:12:33 10° NE
Cosmos 1515 4.1 03:05:26 13° SSE 03:08:31 41° E 03:12:08 10° NNE
SJ-6B 4.4 03:05:20 10° SSW 03:08:41 30° W 03:12:02 10° NW
USA 186 4.4 03:08:06 10° WSW 03:08:45 11° W 03:09:23 10° WNW
STARLINK-1222 4.3 03:05:58 10° WSW 03:08:55 40° NW 03:11:53 10° NE
Abrixas rocket 4.1 03:07:02 10° W 03:09:39 28° NNW 03:12:17 10° NE
STARLINK-1214 4.4 03:06:53 10° WSW 03:09:49 39° NW 03:12:47 10° NE
STARLINK-1120 3.7 03:06:15 10° NW 03:10:23 69° NE 03:13:16 19° ESE
STARLINK-1154 3.5 03:09:16 10° SW 03:13:24 82° SE 03:17:33 10° NE
Meteor 1-19 Rocket 4.3 03:09:04 10° S 03:14:30 61° E 03:20:08 10° NNE
CREW DRAGON DEMO-1 DEB 4.1 03:12:22 10° NW 03:15:15 34° NNE 03:17:09 17° E
STARLINK-1131 3.6 03:11:12 10° NW 03:15:21 76° NE 03:18:02 21° ESE
Lacrosse 5 4.1 03:12:44 10° NNW 03:16:03 17° NNE 03:19:22 10° ENE
Terra 3.9 03:14:10 10° E 03:16:22 13° ENE 03:18:33 10° NE
Cosmos 2278 Rocket 2.7 03:11:27 10° S 03:16:37 37° ESE 03:21:47 10° NE
ASTEX 1 4.2 03:12:20 10° S 03:17:05 51° W 03:21:52 10° NNW
STARLINK-1157 3.4 03:14:57 10° WNW 03:18:14 56° SW 03:19:58 24° SSE
STARLINK-1197 3.6 03:14:14 10° SW 03:18:22 89° SSE 03:22:31 10° NE
STARLINK-1087 2.6 03:18:16 10° NW 03:20:10 38° NE 03:20:26 35° ENE
STARLINK-1190 3.6 03:16:09 10° NW 03:20:18 83° NE 03:22:47 23° SE
USA 245 3.8 03:21:31 23° SE 03:23:14 36° ENE 03:26:13 10° N
STARLINK-1198 3.6 03:19:11 10° SW 03:23:19 83° NW 03:27:28 10° NE
Okean 1-7 3.0 03:20:03 10° S 03:24:21 82° W 03:28:38 10° N
Meteor 1-18 Rocket 4.2 03:18:57 10° S 03:24:30 89° E 03:30:09 10° N
STARLINK-1129 3.6 03:21:09 10° NW 03:25:19 90° ENE 03:27:36 26° SE
Meteor 1-4 Rocket 2.5 03:23:36 22° SSE 03:25:34 53° E 03:28:56 10° NNE
Cosmos 1844 Rocket 4.3 03:21:13 10° SW 03:26:27 38° WNW 03:31:43 10° N
Cosmos 2221 Rocket 4.3 03:24:22 22° SE 03:26:29 35° E 03:30:36 10° NNE
Hubble Space Telescope 2.5 03:24:13 10° SW 03:26:48 16° S 03:26:52 16° S
STARLINK-1199 3.8 03:24:12 10° SW 03:28:20 76° NW 03:32:29 10° NE
STARLINK-1134 3.6 03:26:10 10° NW 03:30:19 82° SW 03:32:25 28° SE
Resurs 01 Rocket 2.1 03:29:31 14° S 03:33:18 60° W 03:37:44 10° NNW
STARLINK-1210 3.9 03:29:11 10° WSW 03:33:18 70° NW 03:37:26 10° NE
Cosmos 1420 Rocket 4.3 03:31:38 19° SSE 03:34:59 43° ESE 03:39:53 10° NNE
STARLINK-1135 3.6 03:31:06 10° NW 03:35:15 75° SW 03:37:10 31° SE
Cosmos 407 Rocket 3.5 03:29:57 10° NNW 03:35:20 83° ENE 03:38:42 23° SSE
Cosmos 371 Rocket 4.3 03:34:23 25° SE 03:35:33 28° E 03:39:39 10° NE
STARLINK-1219 4.1 03:34:11 10° WSW 03:38:17 63° NW 03:42:24 10° NE
STARLINK-1141 3.7 03:36:07 10° NW 03:40:14 68° SW 03:41:58 33° SSE
Sich 1 Rocket 3.7 03:37:09 10° N 03:41:44 67° E 03:44:00 29° SSE
ATLAS 3B CENTAUR R/B 4.1 03:34:37 10° SW 03:41:55 19° S 03:43:02 19° SSE
ERBS 2.4 03:42:53 45° SSE 03:43:14 47° SE 03:46:26 10° NE
STARLINK-1211 4.2 03:39:11 10° WSW 03:43:16 58° NW 03:47:21 10° NE
STARLINK-1140 3.8 03:41:05 10° WNW 03:45:11 61° SW 03:46:43 35° SSE
SPOT 1/Viking Rocket 3.7 03:45:02 28° SE 03:47:39 60° ENE 03:52:45 10° N
NOSS 2-3 (E) 4.4 03:44:08 10° SW 03:48:15 52° NW 03:53:02 10° NNE
STARLINK-1245 4.4 03:44:13 10° WSW 03:48:16 53° NW 03:52:20 10° NE
Cosmos 1782 Rocket 3.9 03:44:34 10° NNW 03:49:01 65° W 03:51:50 22° S
Meteor 1-13 Rocket 4.5 03:46:32 27° SSE 03:49:13 48° E 03:54:39 10° NNE
Cosmos 1544 3.1 03:46:18 10° NNW 03:49:57 73° W 03:51:24 34° S
Cosmos 724 4.3 03:44:09 10° NNW 03:50:05 85° ENE 03:53:17 29° SSE
STARLINK-1156 3.9 03:46:07 10° WNW 03:50:09 55° SW 03:51:31 36° SSE
Meteor 2-4 Rocket 3.5 03:47:05 18° S 03:51:08 78° E 03:56:31 10° NNE
Cosmos 1743 4.4 03:47:48 10° NNW 03:51:10 30° W 03:54:10 12° SSW
COSMOS 2406 3.3 03:45:37 10° NNW 03:51:24 72° ENE 03:54:17 30° SE
SPOT 5 3.7 03:49:21 28° ESE 03:51:26 41° ENE 03:56:20 10° N
SAR-Lupe-2 3.7 03:48:11 10° N 03:51:47 75° WNW 03:53:51 24° SSW
STARLINK-1203 4.4 03:54:42 33° E 03:54:42 33° E 03:57:36 10° ENE
STARLINK-1148 4.0 03:51:06 10° WNW 03:55:07 50° SW 03:56:17 37° S
SL-4 R/B 3.8 03:53:59 10° NNE 03:55:29 13° NE 03:55:53 12° ENE
Cosmos 1190 Rocket 4.1 03:52:20 10° NNW 03:57:33 75° WSW 04:00:12 30° S
Okean 2 Rocket 3.1 03:54:02 10° N 03:58:26 61° E 03:59:43 41° SE
STARLINK-1158 4.2 03:56:07 10° WNW 04:00:05 45° SW 04:01:05 37° S
STARLINK-1088 4.4 03:58:23 10° NW 04:02:22 44° NNE 04:03:56 30° E
STARLINK-1162 4.3 04:01:07 10° WNW 04:05:01 40° SW 04:05:51 36° SSW
STARLINK-1239 4.3 04:06:43 36° E 04:06:43 36° E 04:09:31 10° ENE
STARLINK-1115 4.3 04:03:20 10° NW 04:07:21 47° NNE 04:08:42 34° E
Cosmos 1140 Rocket 3.7 04:03:16 10° NNW 04:08:26 66° WSW 04:10:46 32° S
Landsat 7 4.0 04:06:44 32° S 04:08:53 70° WSW 04:13:38 10° NNW
Cosmos 1975 4.0 04:05:27 10° NNW 04:09:15 39° W 04:11:15 23° SSW
STARLINK-1240 4.1 04:11:30 41° E 04:11:30 41° E 04:14:32 10° ENE
ISS -1.0 04:08:42 10° NNW 04:10:54 16° NNE 04:13:00 10° NE
Cosmos 2151 Rocket 3.8 04:07:02 10° N 04:11:31 58° E 04:12:27 47° SE
STARLINK-1076 4.2 04:08:18 10° NW 04:12:21 51° NE 04:13:29 38° E
Nadezhda 4 Rocket 4.4 04:11:46 34° SE 04:13:34 42° E 04:19:17 10° NNE
GENESIS II 4.5 04:09:49 10° NNW 04:13:47 56° NE 04:14:19 50° E
BREEZE-M DEB 4.0 04:15:51 27° ENE 04:15:51 27° ENE 04:18:25 10° ENE
Okean 1 Rocket 4.2 04:11:25 10° NNE 04:15:18 28° ENE 04:15:37 28° E
STARLINK-1216 3.9 04:16:16 48° E 04:16:16 48° E 04:19:32 10° ENE
Aureole 1 Rocket 4.0 04:12:45 10° NNW 04:16:55 48° WSW 04:19:15 29° SSW
STARLINK-1092 4.0 04:13:15 10° NW 04:17:20 56° NE 04:18:15 44° E
STARLINK-1237 3.7 04:21:01 56° E 04:21:01 56° E 04:24:32 10° NE
ERS-1 Rocket 2.9 04:20:26 44° SSE 04:22:04 88° WSW 04:27:08 10° NNW
STARLINK-1080 3.9 04:18:15 10° NW 04:22:21 61° NE 04:23:05 51° E
Cosmos 304 Rocket 4.4 04:23:56 37° E 04:23:56 37° E 04:28:02 10° NE
Cosmos 2279 Rocket 3.9 04:17:57 10° N 04:24:13 86° W 04:26:58 36° S
Cosmos 1954 Rocket 4.0 04:19:21 10° NNW 04:24:36 75° WSW 04:26:17 44° S
STARLINK-1202 3.6 04:25:48 65° E 04:25:48 65° E 04:29:32 10° NE
STARLINK-1090 3.7 04:23:12 10° NW 04:27:20 67° NE 04:27:51 59° E
SeaSat 1 2.9 04:22:56 10° NE 04:27:22 41° ESE 04:27:22 41° ESE
Cosmos 332 Rocket 3.7 04:27:14 53° SSE 04:28:13 69° ESE 04:33:06 10° NNE
Cosmos 2082 Rocket 2.5 04:24:26 10° NNW 04:30:06 57° ENE 04:31:41 42° ESE
STARLINK-1089 3.6 04:28:10 10° NW 04:32:19 73° NE 04:32:37 69° ENE
Cosmos 1437 Rocket 2.6 04:33:49 84° N 04:33:49 84° N 04:37:31 10° N
CARTOSAT-1 3.7 04:33:48 55° SSW 04:34:31 66° W 04:38:50 10° NNW
STARLINK-1246 3.4 04:35:19 87° SSE 04:35:20 87° SE 04:39:30 10° NE
STARLINK-1107 3.5 04:33:08 10° NW 04:37:17 80° NE 04:37:24 79° ENE
Cosmos 676 Rocket 4.4 04:32:24 10° NNW 04:37:30 54° WSW 04:39:02 40° SSW
Cosmos 1833 Rocket 2.7 04:32:32 10° NNW 04:38:10 77° WSW 04:39:38 50° S
STARLINK-1224 3.5 04:40:05 79° WSW 04:40:19 86° NW 04:44:29 10° NE
STARLINK-1066 3.5 04:38:08 10° NW 04:42:12 85° NNW 04:42:12 85° NNW
Cosmos 2369 Rocket 4.1 04:44:15 15° E 04:44:15 15° E 04:46:11 10° ENE
Meteor 1-15 Rocket 4.3 04:38:45 10° N 04:44:42 73° E 04:46:06 53° SE
STARLINK-1225 3.6 04:44:52 68° W 04:45:18 79° NW 04:49:28 10° NE
Cosmos 1066 Rocket 4.0 04:45:52 57° S 04:47:01 81° E 04:52:25 10° NNE
STARLINK-1081 3.6 04:43:06 10° NW 04:46:59 76° WNW 04:46:59 76° WNW
Cosmos 1331 Rocket 4.4 04:47:37 45° E 04:47:37 45° E 04:52:12 10° NNE
BREEZE M DEB (TANK) 4.0 04:43:15 10° WSW 04:48:16 38° NNW 04:49:37 22° NNE
BREEZE-M DEB (TANK) 3.9 04:49:21 46° E 04:49:21 46° E 04:56:47 10° ENE
STARLINK-1230 3.7 04:49:38 59° W 04:50:16 72° NW 04:54:25 10° NE
Cosmos 1092 Rocket 4.1 04:50:48 48° ESE 04:51:47 53° E 04:57:43 10° NNE
STARLINK-1070 3.8 04:48:05 10° NW 04:51:45 66° WNW 04:51:45 66° WNW
Cosmos 1943 Rocket 3.4 04:53:31 26° E 04:53:31 26° E 04:57:04 10° NE
Terra 1.8 04:52:55 62° SSW 04:53:29 70° WSW 04:58:15 10° NNW
STARLINK-1243 3.9 04:54:24 50° W 04:55:15 66° NW 04:59:23 10° NE
STARLINK-1069 4.0 04:53:03 10° NW 04:56:31 57° W 04:56:31 57° W
Lacrosse 5 2.1 04:54:57 10° NW 04:59:58 59° NE 05:00:44 52° E
STARLINK-1236 4.1 04:59:09 43° W 05:00:15 60° NW 05:04:22 10° NE
Cosmos 2278 Rocket 3.9 04:55:43 10° WSW 05:00:42 31° WNW 05:05:44 10° N
Cosmos 1766 4.4 04:57:00 10° N 04:59:56 36° NE 04:59:56 36° NE
STARLINK-1085 4.2 04:58:04 10° NW 05:01:20 49° W 05:01:20 49° W
EXPRESS MD2 4.0 05:01:28 35° WSW 05:03:05 70° NNW 05:10:10 10° NE
STARLINK-1086 4.5 05:03:04 10° WNW 05:06:06 43° W 05:06:06 43° W
Cosmos 1461 3.6 05:08:20 48° NE 05:08:20 48° NE 05:11:30 10° NNE
STARLINK-1269 4.4 05:08:40 32° W 05:10:13 50° NW 05:14:16 10° NE
Thor Agena Rocket 3.5 05:05:06 10° NNE 05:10:24 67° ESE 05:10:27 67° ESE
Cosmos 2195 Rocket 4.4 05:12:59 60° SE 05:13:58 70° E 05:20:15 10° NNE
Cosmos 1733 4.5 05:14:47 10° N 05:17:19 35° NNE 05:17:19 35° NNE
Cosmos 1428 Rocket 4.5 05:24:11 61° SE 05:24:53 66° E 05:31:08 10° NNE
Cosmos 1975 Rocket 3.5 05:29:24 60° NNE 05:29:24 60° NNE 05:33:05 10° N
SL-4 R/B 4.2 05:25:58 10° NW 05:26:43 15° NW 05:26:43 15° NW
Cosmos 1470 4.5 05:39:44 10° N 05:41:59 28° NNE 05:41:59 28° NNE
Cosmos 1553 Rocket 4.2 05:37:18 10° N 05:43:30 54° E 05:44:06 52° E
Cosmos 2026 Rocket 3.9 05:44:01 67° SSW 05:44:53 80° W 05:51:13 10° N
ISS -1.1 05:44:52 10° NW 05:45:56 19° NW 05:45:56 19° NW
Meteor 1-22 Rocket 4.3 05:46:45 10° NNW 05:52:39 65° W 05:52:58 64° WSW
USA 215 3.2 05:55:04 56° ESE 05:56:36 82° NE 06:03:10 10° NW
Helios 1A 4.5 06:00:24 31° NE 06:00:24 31° NE 06:03:20 10° N
Aureole 3 Rocket 4.0 05:54:19 10° N 05:59:58 82° E 06:00:52 69° SSE
SeaSat 1 4.2 06:00:49 10° N 06:04:55 27° NW 06:07:07 20° W
Cosmos 1455 Rocket 4.0 06:01:32 10° NNW 06:04:42 44° NW 06:04:42 44° NW
Cosmos 1025 Rocket 4.1 06:13:04 42° NNE 06:13:04 42° NNE 06:15:59 10° N
Cosmos 2082 Rocket 4.0 06:09:42 10° NW 06:13:32 20° W 06:13:32 20° W
Cosmos 2266 Rocket 4.2 06:14:24 55° E 06:14:29 55° E 06:20:24 10° NNE
Cosmos 968 Rocket 3.9 06:13:09 10° N 06:17:58 52° NE 06:17:58 52° NE
NOSS 3-4 (A) 3.9 06:19:43 45° E 06:19:43 45° E 06:24:41 10° NE
NOSS 3-4 (C) 3.9 06:19:49 44° E 06:19:49 44° E 06:24:48 10° NE
ALOS 2 3.6 06:26:19 43° NW 06:26:19 43° NW 06:29:26 10° NNW
Cosmos 2369 Rocket 2.3 06:26:00 66° WNW 06:26:11 67° WNW 06:31:51 10° NNE
ATLAS 3B R/B 4.4 06:21:25 10° NNW 06:27:05 27° NE 06:32:53 10° E
Cosmos 1486 Rocket 4.1 06:23:16 10° NNW 06:28:04 73° N 06:28:04 73° N
Cosmos 1726 4.2 06:27:01 10° N 06:28:53 27° NNE 06:28:53 27° NNE
Meteor 2-19 Rocket 4.3 06:30:51 75° ESE 06:31:00 76° E 06:37:09 10° N
CENTAUR R/B 3.6 06:23:18 10° NNW 06:31:18 57° NE 06:36:06 28° ESE
Cosmos 1943 Rocket 3.1 06:34:59 36° W 06:35:57 39° WNW 06:41:11 10° N
Cosmos 2098 Rocket 4.4 06:36:16 53° ESE 06:36:56 55° E 06:43:58 10° NNE
Cosmos 292 Rocket 4.4 06:37:33 51° NW 06:37:33 51° NW 06:41:45 10° N
Lacrosse 5 4.1 06:38:41 10° WNW 06:39:54 15° W 06:39:54 15° W
Cosmos 1953 3.8 06:39:47 10° N 06:42:10 35° N 06:42:10 35° N
Cosmos 1340 Rocket 4.3 06:40:57 10° N 06:43:29 36° N 06:43:29 36° N
ATLAS 2AS CENTAUR R/B 2.9 06:45:28 62° SSW 06:47:03 84° ESE 06:55:04 10° NE
Cosmos 2315 Rocket 4.0 06:44:51 10° N 06:51:02 66° E 06:51:33 63° ESE
NOSS 3-2 (A) 4.1 06:50:33 10° NW 06:58:15 68° WSW 06:59:36 60° SSW
Meteor 2-15 4.3 06:54:00 10° N 07:00:10 87° W 07:00:25 83° SSW
BREEZE-M DEB (TANK) 4.4 06:57:09 10° WNW 07:02:05 38° WNW 07:02:05 38° WNW
COSMOS 2455 2.8 07:04:08 72° ESE 07:04:08 72° ESE 07:10:03 10° NNE
USA 238 DEB 3.9 06:58:27 10° NW 07:05:35 60° WSW 07:05:58 59° SW
USA 238 3.9 06:58:32 10° NW 07:05:41 60° WSW 07:06:06 59° SW
Cosmos 1606 Rocket 4.4 07:04:03 10° N 07:07:15 47° NNE 07:07:15 47° NNE
SL-4 R/B 3.1 07:11:24 50° NE 07:11:24 50° NE 07:14:57 10° NE
Cosmos 1674 4.4 07:12:36 31° N 07:12:36 31° N 07:14:40 10° N
ATLAS 5 CENTAUR R/B 4.3 07:13:39 13° NNW 07:13:39 13° NNW 07:14:14 10° N
Meteor 2-15 Rocket 4.3 07:10:40 10° N 07:16:50 81° W 07:17:09 78° SW
Cosmos 1833 4.2 07:12:21 10° NNW 07:17:32 68° WNW 07:17:32 68° WNW
Cosmos 1656 Rocket 4.2 07:19:15 47° WNW 07:19:44 48° WNW 07:25:10 10° NNE
Exosat Rocket 4.4 07:10:27 10° NNW 07:20:04 83° WSW 07:21:38 60° S
ATLAS CENTAUR R/B 2.4 07:21:34 46° NNE 07:21:34 46° NNE 07:24:34 10° NNE
CZ-4 R/B 4.2 07:17:55 10° N 07:22:09 57° NW 07:22:09 57° NW
PSLV R/B 4.2 07:21:14 10° N 07:25:01 53° NNW 07:25:01 53° NNW
FALCON 9 R/B 2.9 07:32:38 57° S 07:33:12 59° SSE 07:50:06 10° E
RESURS DK-1 3.2 07:42:47 47° NE 07:42:47 47° NE 07:45:51 10° NNE
Cosmos 1777 Rocket 4.1 07:37:03 10° NNW 07:42:17 69° ENE 07:42:43 66° ESE
Cosmos 1892 Rocket 4.2 07:43:30 52° NNW 07:43:30 52° NNW 07:47:04 10° N
Meteor 2-21 4.3 07:42:04 68° SW 07:42:43 75° W 07:48:55 10° N
BREEZE-M R/B 3.4 07:51:53 62° ENE 07:51:53 62° ENE 07:54:39 10° ENE
SL-19 R/B 4.1 07:46:30 10° NNE 07:51:57 80° WNW 07:52:29 72° SW
CZ-4C R/B 4.3 07:53:36 43° E 07:53:49 44° ENE 07:57:55 10° N
Helios 1B rocket 4.1 07:51:37 10° NNW 07:54:28 25° NW 07:54:28 25° NW
ATLAS CENTAUR R/B 4.4 07:56:03 10° N 07:58:25 20° NE 08:02:26 10° E
SL-16 R/B 3.0 07:56:22 30° SE 07:59:16 56° ENE 08:05:17 10° N
Cosmos 1867 3.6 07:54:11 10° NW 07:59:09 62° W 07:59:09 62° W
Timation 2 Rocket 4.0 07:55:31 10° NNW 08:01:52 77° ENE 08:04:08 41° SE
NOSS 3-2 (C) 4.5 07:55:56 10° NW 08:03:14 43° WSW 08:04:01 42° SW
DELTA 2 DEB (DPAF) 4.1 08:04:49 80° N 08:04:49 80° N 08:09:03 10° NNW
Meteor 1-24 Rocket 3.9 08:10:46 47° W 08:11:07 48° WNW 08:16:19 10° N
Cosmos 1697 Rocket 4.3 08:10:09 20° SE 08:12:04 23° E 08:16:27 10° NE
Cosmos 2227 Rocket 3.8 08:07:27 10° N 08:12:29 32° ENE 08:17:30 10° ESE
Cosmos 1745 Rocket 3.8 08:11:24 57° SSW 08:12:47 86° W 08:18:57 10° N
CZ-2D R/B 2.1 08:09:24 10° NNE 08:14:39 69° ESE 08:15:32 57° SSE
ADEOS II 3.7 08:11:18 10° NE 08:15:42 26° E 08:17:53 20° SE
ATLAS 3B R/B 2.6 08:11:32 10° NW 08:18:21 72° WSW 08:21:15 38° SSE
Cosmos 2084 3.5 08:18:25 80° NW 08:18:25 80° NW 08:22:51 10° NNE
USA 81 4.3 08:19:00 46° SE 08:20:20 62° E 08:25:32 10° NNE
Cosmos 2058 Rocket 4.1 08:16:51 10° NNW 08:20:04 33° WNW 08:20:04 33° WNW
Cosmos 1300 4.0 08:17:20 10° NNW 08:19:45 32° NW 08:19:45 32° NW
CENTAUR R/B 3.7 08:14:24 10° NW 08:21:58 39° WSW 08:23:12 37° SW
Resurs 1-4 Rocket 2.0 08:18:08 10° NNE 08:23:28 85° ESE 08:24:31 59° S
SJ 16-02 3.0 08:19:49 10° N 08:23:48 32° ENE 08:26:55 15° ESE
Cosmos 1626 4.0 08:27:14 21° NW 08:27:14 21° NW 08:29:20 10° NNW
Cosmos 921 Rocket 3.7 08:27:30 40° WNW 08:27:30 40° WNW 08:31:24 10° N
STARLINK-1356 4.5 08:30:52 33° ENE 08:30:52 33° ENE 08:32:45 10° NE
STARLINK-1345 4.5 08:31:12 34° NE 08:31:12 34° NE 08:33:07 10° NE
STARLINK-1355 4.5 08:31:30 34° NE 08:31:30 34° NE 08:33:26 10° NE
STARLINK-1338 4.1 08:31:19 45° ENE 08:31:19 45° ENE 08:33:52 10° NE
STARLINK-1321 4.4 08:31:50 34° NE 08:31:50 34° NE 08:33:45 10° NE
STARLINK-1358 4.4 08:32:11 35° NE 08:32:11 35° NE 08:34:07 10° NE
STARLINK-1332 4.4 08:32:28 35° NE 08:32:28 35° NE 08:34:25 10° NE
STARLINK-1348 4.4 08:32:50 35° NE 08:32:50 35° NE 08:34:47 10° NE
STARLINK-1330 4.4 08:33:08 36° NE 08:33:08 36° NE 08:35:06 10° NE
GEOS 3 Rocket 4.2 08:32:59 39° W 08:32:59 39° W 08:37:09 10° NW
STARLINK-1363 4.4 08:33:27 36° NE 08:33:27 36° NE 08:35:27 10° NE
NPP 3.6 08:27:08 10° NNE 08:32:34 87° ESE 08:33:57 52° S
STARLINK-1337 4.3 08:33:47 36° NE 08:33:47 36° NE 08:35:47 10° NE
STARLINK-1342 4.3 08:34:06 37° NE 08:34:06 37° NE 08:36:07 10° NE
STARLINK-1364 4.3 08:34:26 37° NE 08:34:26 37° NE 08:36:27 10° NE
STARLINK-1376 4.3 08:34:47 37° NE 08:34:47 37° NE 08:36:50 10° NE
STARLINK-1360 4.3 08:35:02 38° NE 08:35:02 38° NE 08:37:06 10° NE
Cosmos 468 Rocket 4.3 08:32:55 44° SSE 08:34:12 57° ESE 08:39:14 10° NNE
STARLINK-1361 4.2 08:35:28 38° NE 08:35:28 38° NE 08:37:32 10° NE
STARLINK-1371 3.8 08:35:16 53° ENE 08:35:16 53° ENE 08:38:03 10° NE
STARLINK-1367 4.2 08:35:41 39° NE 08:35:41 39° NE 08:37:49 10° NE
STARLINK-1366 4.2 08:36:04 39° NE 08:36:04 39° NE 08:38:10 10° NE
Cosmos 1626 Rocket 3.9 08:35:09 49° WNW 08:35:09 49° WNW 08:39:16 10° N
Cosmos 1656 3.8 08:34:04 47° S 08:35:39 70° ESE 08:41:18 10° NNE
STARLINK-1341 3.7 08:37:16 56° ENE 08:37:16 56° ENE 08:40:07 10° NE
Meteor 1-21 Rocket 4.2 08:36:33 47° S 08:38:15 83° E 08:43:55 10° N
STARLINK-1374 3.6 08:39:18 61° ENE 08:39:18 61° ENE 08:42:15 10° NE
ATLAS 2AS CENTAUR R/B 4.5 08:32:50 12° W 08:38:58 29° NW 08:45:39 10° NNE
STARLINK-1339 3.5 08:41:20 64° NE 08:41:20 64° NE 08:44:22 10° NE
STARLINK-1377 3.4 08:43:24 68° NE 08:43:24 68° NE 08:46:31 10° NE
STARLINK-1353 3.4 08:44:23 65° NE 08:44:23 65° NE 08:47:24 10° NE
STARLINK-1375 3.3 08:46:16 70° NNE 08:46:16 70° NNE 08:49:25 10° NE
Cosmos 2369 4.5 08:43:42 28° SSE 08:46:05 43° ESE 08:51:24 10° NE
Meteor 2-10 Rocket 3.5 08:42:41 10° N 08:48:00 78° E 08:50:25 32° SSE
STARLINK-1350 3.3 08:48:32 70° N 08:48:32 70° N 08:51:43 10° NE
FALCON 9 DEB 4.4 08:48:28 32° NW 08:48:49 33° NNW 08:52:00 10° NE
SL-4 R/B 4.1 08:46:57 14° WNW 08:50:20 28° NNW 08:54:25 10° NE
STARLINK-1352 3.2 08:51:47 71° NNW 08:51:47 71° NNW 08:55:15 10° NE
CZ-4C R/B 2.4 08:51:25 37° SSE 08:52:57 51° ESE 08:58:22 10° NE
STARLINK-1368 3.3 08:53:55 68° NW 08:53:57 68° NW 08:57:28 10° NE
STARLINK-1369 3.3 08:54:56 65° NW 08:54:57 65° NW 08:58:23 10° NE
Alouette 2 Rocket 3.9 08:49:48 10° N 08:55:51 79° ENE 08:57:53 32° SSE
UNK 4.0 08:55:42 45° WSW 08:56:02 46° W 09:00:29 10° NNW
STARLINK-1372 3.3 08:58:13 59° WNW 08:58:27 61° NW 09:01:57 10° NE
Cosmos 1812 Rocket 3.8 08:55:15 10° NNW 08:59:35 51° W 09:00:07 48° WSW
ATLAS CENTAUR R/B 3.9 08:57:47 10° WNW 08:59:43 13° NW 09:01:35 10° NNW
STARLINK-1378 3.4 09:00:23 55° WNW 09:00:43 58° NW 09:04:13 10° NE
STARLINK-1365 3.5 09:00:59 52° WNW 09:01:19 55° NW 09:04:45 10° NE
STARLINK-1329 3.5 09:01:02 54° WNW 09:01:25 58° NW 09:04:54 10° NE
BREEZE-M DEB (TANK) 4.2 09:00:16 10° NW 09:01:33 13° N 09:02:47 10° NNE
Cosmos 1709 Rocket 4.0 09:00:27 36° SSW 09:02:54 63° W 09:08:59 10° N
STARLINK-1379 3.5 09:02:34 51° WNW 09:02:59 56° NW 09:06:29 10° NE
Cosmos 1455 2.0 08:59:33 10° N 09:03:17 79° W 09:03:48 63° SSW
STARLINK-1362 3.5 09:03:17 50° WNW 09:03:45 55° NW 09:07:15 10° NE
Cosmos 1980 Rocket 3.4 09:00:48 17° SSE 09:04:21 34° ESE 09:09:21 10° NE
Cosmos 2219 3.1 09:00:20 10° NNW 09:05:58 68° WSW 09:09:29 23° S
STARLINK-1373 3.6 09:05:32 46° WNW 09:06:07 52° NW 09:09:35 10° NE
AQUA 4.1 09:01:43 10° N 09:06:21 52° WNW 09:07:44 39° WSW
NOSS 7 (H) 4.1 09:07:07 78° WSW 09:07:17 84° NW 09:10:18 10° NNE
STARLINK-1390 3.7 09:06:48 45° WNW 09:07:21 51° NW 09:10:47 10° NE
Cosmos 1825 Rocket 3.4 09:06:52 47° SSW 09:08:03 77° W 09:12:23 10° N
CZ-4B R/B 4.1 09:08:07 10° N 09:13:02 45° WNW 09:14:58 31° WSW
Cosmos 540 Rocket 4.0 09:11:42 24° S 09:14:36 55° ESE 09:19:37 10° NNE
IRS-1C 4.2 09:10:05 10° NNE 09:15:27 79° ESE 09:18:32 26° S
Cosmos 1400 Rocket 4.0 09:14:51 10° N 09:18:47 42° ENE 09:22:42 10° SSE
Cosmos 990 Rocket 3.9 09:14:30 10° NNW 09:19:47 79° WSW 09:24:26 13° SSE
Cosmos 2297 Rocket 2.1 09:15:27 10° NNW 09:21:03 64° WSW 09:25:53 14° S
STARLINK-1212 2.6 09:18:05 10° NW 09:21:11 79° SW 09:24:16 10° SE
STARLINK-1105 2.6 09:18:33 10° NW 09:21:38 78° SW 09:24:43 10° SE
CBERS-1 4.2 09:16:38 10° N 09:21:38 56° WNW 09:23:58 30° SW
GP-B 3.4 09:17:39 10° N 09:21:55 48° W 09:23:22 34° SW
STARLINK-1247 2.7 09:19:28 10° NW 09:22:34 76° SW 09:25:41 10° SE
Cosmos-2242 2.9 09:18:25 10° NNW 09:22:40 68° W 09:24:34 31° S
STARLINK-1227 2.6 09:19:55 10° NW 09:23:01 75° SW 09:26:05 10° SE
STARLINK-1226 2.7 09:20:46 10° NW 09:23:52 74° SW 09:26:58 10° SE
Cosmos 1703 3.6 09:23:36 38° WSW 09:24:36 48° W 09:28:26 10° N
STARLINK-1215 2.7 09:21:43 10° NW 09:24:50 72° SW 09:27:55 10° SE
Cosmos 2082 4.0 09:19:22 10° NNW 09:25:02 69° ENE 09:30:37 10° SSE
STARLINK-1217 2.7 09:23:29 10° NW 09:26:35 68° SW 09:29:41 10° SE
Cosmos 2278 3.9 09:23:49 22° S 09:27:26 66° ESE 09:33:03 10° NNE
STARLINK-1229 2.7 09:24:25 10° NW 09:27:30 67° SW 09:30:36 10° SE
Cosmos 841 Rocket 3.5 09:24:51 25° S 09:27:57 80° ESE 09:33:12 10° NNE
BREEZE M DEB (TANK) 3.3 09:25:30 10° NW 09:28:11 70° NNE 09:35:32 10° ESE
STARLINK-1270 2.7 09:25:17 10° NW 09:28:23 65° SW 09:31:28 10° SE
STARLINK-1254 4.4 09:26:07 10° NW 09:30:11 54° NE 09:34:15 10° ESE
STARLINK-1189 2.7 09:27:07 10° WNW 09:30:12 62° SW 09:33:16 10° SE
COBE Rocket 4.3 09:25:59 10° SSE 09:30:49 65° ENE 09:35:49 10° N
STARLINK-1188 2.8 09:28:01 10° WNW 09:31:06 60° SW 09:34:10 10° SE
Meteor 1-11 4.2 09:27:25 21° S 09:31:18 89° E 09:36:56 10° N
STARLINK-1187 3.2 09:29:09 10° WNW 09:32:42 43° S 09:35:10 10° SSE
STARLINK-1191 2.8 09:30:30 10° WNW 09:33:33 56° SW 09:36:35 10° SE
SL-08 R/B 3.2 09:30:05 13° S 09:34:19 82° WSW 09:39:00 10° NNW
STARLINK-1221 2.8 09:31:21 10° WNW 09:34:24 55° SW 09:37:26 10° SE
IRS-1D 4.1 09:29:54 10° N 09:34:56 44° WNW 09:37:40 24° SW
STARLINK-1231 4.2 09:31:05 10° NW 09:35:12 58° NE 09:39:17 10° ESE
STARLINK-1222 2.8 09:32:16 10° WNW 09:35:19 53° SW 09:38:19 10° SE
STARLINK-1214 2.9 09:33:10 10° WNW 09:36:12 52° SW 09:39:12 10° SE
STARLINK 1040 4.2 09:37:55 20° SSE 09:38:18 21° SE 09:40:22 10° E
STARLINK-1232 4.1 09:36:04 10° NW 09:40:11 64° NE 09:44:18 10° ESE
CZ-2C R/B 3.9 09:36:49 10° NNE 09:40:18 38° E 09:43:43 10° SSE
SL-16 R/B 3.7 09:41:27 20° WSW 09:43:12 22° W 09:47:52 10° NW
Cosmos 2074 Rocket 4.0 09:39:15 17° SSW 09:44:19 78° W 09:50:40 10° N
STARLINK-1208 3.9 09:41:00 10° NW 09:45:09 70° NE 09:49:17 10° ESE
Cosmos 1763 Rocket 4.3 09:43:52 21° WSW 09:46:36 36° WNW 09:51:17 10° N
H-2A R/B 2.3 09:43:31 10° SSE 09:47:46 71° ENE 09:52:09 10° N
STARLINK-1271 3.8 09:45:59 10° NW 09:50:09 77° NE 09:54:17 10° SE
CZ-2D R/B 4.0 09:51:06 10° NNW 09:54:05 15° WNW 09:56:52 11° W
USA 234 3.6 09:48:29 10° NE 09:54:56 59° SE 10:00:31 14° SSW
Cosmos 2058 4.3 09:51:17 10° SSE 09:55:08 38° E 09:59:02 10° NNE
STARLINK-1154 3.6 09:50:58 10° NW 09:55:08 84° NE 09:59:17 10° SE
ADEOS II 2.8 09:50:38 10° N 09:55:26 37° WNW 09:58:49 18° SW
Lacrosse 4 Rocket 1.8 09:51:16 10° NNW 09:55:35 66° ENE 09:59:43 10° SE
Cosmos 1697 Rocket 3.2 09:51:53 19° SW 09:55:39 48° WNW 10:01:08 10° NNE
Cosmos 2184 Rocket 4.0 09:51:04 15° SSW 09:56:13 65° W 10:02:22 10° N
Cosmos 2227 Rocket 2.7 09:51:22 10° NW 09:56:32 37° WSW 10:01:40 10° S
STARLINK-1197 3.6 09:55:57 10° NW 10:00:06 89° SW 10:04:15 10° SE
SJ 16-02 2.6 09:58:46 10° NW 10:02:10 22° W 10:03:51 18° SW
SL-16 R/B 3.9 09:57:21 10° SSE 10:02:10 29° ESE 10:07:00 10° NE
Resurs 1-4 Rocket 4.2 10:00:17 10° NW 10:02:32 13° WNW 10:04:47 10° W
USA 129 1.6 10:01:23 10° NNE 10:02:55 42° E 10:02:55 42° E
ARIANE 5 R/B 2.9 09:59:49 10° N 10:04:41 48° WNW 10:08:37 15° SW
STARLINK-1198 3.5 10:00:54 10° NW 10:05:03 81° SW 10:09:11 10° SE
CZ-4B R/B 4.1 10:03:49 10° ESE 10:06:07 20° ENE 10:08:27 10° NNE
Iridium 2 3.7 10:03:50 10° N 10:07:33 61° W 10:11:15 10° S
ATLAS 3B R/B 4.4 10:05:53 10° W 10:07:57 11° WSW 10:08:23 11° WSW
STARLINK-1199 3.5 10:05:55 10° NW 10:10:04 74° SW 10:14:11 10° SE
Spot 4 Rocket 4.2 10:06:10 10° N 10:11:13 58° WNW 10:16:00 11° SSW
MSX 4.2 10:06:00 10° NNE 10:11:46 68° ESE 10:17:28 10° S
STARLINK-43 3.3 10:09:35 17° SW 10:12:18 76° SE 10:15:59 10° NE
Cosmos 1842 Rocket 3.5 10:09:28 10° NNW 10:13:57 74° W 10:18:23 10° S
Cosmos 1610 Rocket 4.5 10:08:34 10° SSW 10:14:38 69° W 10:20:47 10° N
STARLINK-1210 3.5 10:10:54 10° NW 10:15:01 67° SW 10:19:07 10° SE
ERS-2 2.8 10:12:05 11° SSW 10:15:18 34° W 10:18:41 10° NNW
Cosmos 2298 Rocket 4.1 10:11:39 10° NNW 10:16:59 84° ENE 10:22:17 10° SSE
STARLINK-1219 3.6 10:15:53 10° WNW 10:19:58 60° SW 10:24:03 10° SE
STARLINK-55 4.3 10:17:33 11° SSW 10:20:17 32° SE 10:23:10 10° ENE
IDEFIX/ARIANE 42P 2.6 10:15:16 10° N 10:20:31 70° WNW 10:25:44 10° SSW
Meteor 1-27 4.4 10:15:56 10° NNW 10:21:19 53° W 10:26:41 10° S
Cosmos 1937 Rocket 4.4 10:18:46 10° NW 10:23:16 30° W 10:27:46 10° SSW
STARLINK-1211 3.7 10:20:53 10° WNW 10:24:55 54° SW 10:28:58 10° SSE
Cosmos 2154 Rocket 4.2 10:22:06 10° SSW 10:28:16 57° W 10:34:27 10° N
STARLINK-1245 3.8 10:25:54 10° WNW 10:29:54 49° SW 10:33:54 10° SSE
STARLINK-28 3.7 10:27:14 10° SSW 10:30:16 45° SE 10:33:20 10° ENE
STARLINK-1233 3.9 10:30:54 10° WNW 10:34:51 44° SW 10:38:47 10° SSE
ADEOS 4.4 10:30:45 10° NNE 10:35:50 52° E 10:40:54 10° S
CZ-2C R/B 3.1 10:34:01 10° NNE 10:39:07 62° E 10:44:15 10° S
STARLINK-1204 4.0 10:35:57 10° WNW 10:39:49 40° SW 10:43:42 10° SSE
Cosmos 1076 Rocket 3.6 10:35:36 10° SSW 10:39:54 66° W 10:44:16 10° N
Cosmos 2360 Rocket 4.2 10:36:20 10° SSE 10:40:52 26° ESE 10:45:26 10° NE
ATLAS CENTAUR R/B 3.9 10:36:47 10° WNW 10:40:57 30° SW 10:49:52 10° S
STARLINK-41 3.8 10:38:00 10° SSW 10:40:58 40° SE 10:43:57 10° ENE
Meteor 2-2 Rocket 4.5 10:35:21 10° NNW 10:41:18 63° W 10:47:14 10° S
CZ-4C R/B 3.6 10:37:32 10° W 10:41:48 26° NW 10:46:44 10° NNE
Landsat 5 4.2 10:37:41 10° SSW 10:41:52 39° W 10:46:07 10° NNW
STARLINK-1289 4.5 10:40:03 10° SSW 10:42:56 30° SE 10:45:50 10° ENE
Cosmos 1125 Rocket 3.7 10:38:14 10° NNW 10:43:28 81° ENE 10:48:40 10° SSE
STARLINK-1303 4.4 10:41:30 10° SSW 10:44:26 31° SE 10:47:24 10° ENE
STARLINK-1238 4.2 10:40:57 10° WNW 10:44:46 36° SW 10:48:33 10° SSE
Centaur D-1A AC-31 4.2 10:22:29 10° W 11:13:22 43° SSW 11:20:07 10° SE
